Location: Colle Pacifico
(43.5333°N, 13.3167°E)
Time: 02:37:36
(UTC+00:00)

BREEZE-M DEB (TANK) - Pass Details

Date: 07 June 2020
Orbit: 419 x 13246 km, 46.0° (Epoch: 05 July)

Event Time Altitude Azimuth Distance (km) Brightness Sun altitude
Exits shadow 02:35:10 - 217° (SW) 2,915 5.8 -8.1°
Reaches altitude 10° 02:35:30 10° 216° (SW) 2,756 5.7 -8.1°
Maximum altitude 02:40:08 29° 155° (SSE) 1,039 4.1 -7.5°
Drops below altitude 10° 02:42:48 10° 91° (E) 1,559 5.9 -7.1°
Sets 02:44:37 0° 77° (ENE) 2,363 7.3 -6.8°
